Wind_Speed
14 14 14 13 13 12 12 12 11 10 9 9 8 7 6 6 6 6 6 5 5 5 4 4 4 3 2 2 2 1 1 1 2 2 2 2 1 1 1 2 2 2 2
15 15 15 14 14 14 13 13 13 12 11 10 10 9 8 7 7 8 8 7 6 6 5 5 4 4 4 4 3 2 2 2 2 2 1 2 2 1 1 1 1 2 2
17 17 16 15 15 15 15 14 14 14 13 12 12 11 10 10 9 9 9 9 8 8 7 7 6 6 6 5 4 3 3 2 2 2 2 2 1 1 1 1 1 1 1
18 18 18 17 16 16 16 16 16 16 15 14 13 13 13 12 12 11 10 10 10 10 9 9 8 7 7 7 6 5 4 4 3 3 3 2 2 1 1 0 0 0 0
20 20 20 19 18 17 17 17 17 17 17 16 15 15 14 14 14 14 13 12 12 11 11 10 10 9 8 8 8 7 6 6 5 4 4 3 3 2 2 1 1 2 1
22 21 21 21 20 20 19 19 19 18 18 18 17 17 16 16 16 16 16 15 14 13 13 12 11 11 10 9 9 9 8 7 7 6 5 5 4 4 3 3 3 3 3
24 23 23 23 22 22 22 21 21 20 19 19 19 19 19 18 18 18 18 17 16 15 14 14 13 12 12 11 11 10 9 9 8 8 7 6 6 5 5 4 4 4 4
26 26 25 26 25 25 24 24 23 22 22 21 21 21 21 20 20 20 19 18 18 17 16 15 15 14 14 13 12 12 11 10 10 9 9 8 8 7 7 6 6 5 5
28 28 27 27 27 27 26 25 25 25 24 24 24 23 23 22 22 22 21 20 20 19 19 18 17 16 15 15 15 14 13 12 12 11 11 10 10 9 8 8 7 7 6
29 29 29 29 29 29 28 28 27 27 27 26 26 26 25 25 24 24 24 23 22 21 21 20 19 19 18 17 16 16 15 14 14 13 12 12 11 11 10 10 9 9 8
31 31 31 31 31 30 30 31 30 29 29 28 28 28 27 27 27 26 26 25 25 24 23 22 22 21 20 19 18 18 17 17 16 15 15 14 14 13 12 12 11 11 11
32 33 33 33 33 32 32 32 32 31 31 31 30 30 29 29 28 28 28 28 27 26 26 25 24 24 22 21 21 20 20 19 19 18 18 17 16 15 15 14 13 13 13
34 34 34 35 35 34 34 34 34 33 33 33 33 32 32 32 31 31 30 30 29 29 28 28 27 26 25 24 24 23 22 22 21 21 20 20 19 18 18 17 16 15 15
36 36 36 37 37 36 36 36 36 36 35 35 34 34 34 34 34 34 33 33 33 32 31 30 29 28 28 27 26 26 25 24 24 23 23 22 21 21 20 20 19 18 18
37 37 38 38 38 38 38 38 38 38 37 37 37 36 36 36 36 36 35 35 35 34 34 33 32 31 30 29 29 28 28 27 26 25 25 24 24 24 23 22 21 21 20
38 38 39 39 40 40 40 40 40 40 39 39 39 38 38 38 37 37 38 38 38 37 37 36 35 34 33 32 31 31 30 29 28 28 27 27 26 26 25 24 24 23 23
39 40 40 40 41 41 42 42 41 41 41 41 41 41 40 40 40 40 39 39 39 40 39 39 38 37 36 35 35 34 32 32 31 30 30 29 29 28 27 27 26 25 25
41 41 41 42 42 42 43 43 44 44 44 44 43 43 43 43 42 42 41 41 41 41 41 41 41 40 39 38 37 37 35 34 34 33 32 31 31 30 29 29 28 27 27
42 42 43 43 44 44 45 45 45 46 46 47 47 47 47 47 46 45 45 44 44 43 43 43 43 43 42 41 40 39 38 37 36 35 34 34 33 32 32 31 30 29 29
43 43 44 45 45 46 46 47 47 48 48 49 49 49 49 49 48 48 48 47 46 45 45 45 45 44 43 43 42 41 41 40 38 37 37 36 36 35 35 34 33 32 32
45 45 45 46 47 48 48 48 49 49 50 51 51 50 50 50 50 50 49 49 49 48 47 47 47 46 45 45 44 43 43 42 41 40 39 39 38 38 37 36 36 35 34
46 46 46 47 48 49 50 50 50 50 50 51 52 52 52 51 51 51 50 50 49 49 49 49 49 48 48 47 47 47 46 45 44 42 41 41 40 40 39 39 38 37 36
46 47 47 48 49 49 50 50 51 51 52 52 52 52 52 52 52 52 51 51 51 51 50 50 49 50 50 49 49 49 49 47 46 45 44 43 43 42 42 41 41 39 39
45 47 48 49 49 49 50 50 51 51 51 52 52 52 52 52 52 52 52 52 52 52 51 51 50 50 50 51 51 51 51 50 48 47 47 46 45 44 44 43 43 42 41
44 45 47 48 49 49 50 50 50 50 50 51 51 52 51 51 52 53 52 53 52 52 51 51 51 50 51 52 52 52 52 52 52 51 49 48 47 46 46 45 44 43 43
43 43 44 46 47 49 49 50 50 50 50 50 50 51 51 51 52 52 51 53 53 53 52 52 52 51 51 51 51 52 52 53 53 52 51 50 50 48 48 47 46 45 45
Wind_Direction
238 237 236 236 235 232 229 229 228 228 228 228 225 220 214 214 216 214 212 212 213 212 211 219 229 230 227 215 205 197 188 182 155 137 126 126 128 119 99 101 96 87 81
240 239 239 240 239 238 235 232 230 230 230 230 229 227 223 222 223 224 224 223 225 226 225 228 236 239 236 233 230 229 216 202 188 169 158 150 141 131 116 113 106 91 78
240 239 241 241 242 241 239 236 235 235 235 233 233 232 230 229 229 230 232 231 231 234 234 235 240 242 240 239 239 235 228 221 214 203 195 188 180 161 131 130 129 116 95
241 241 242 242 242 243 242 241 238 238 238 235 235 237 236 235 234 235 237 236 237 239 240 240 242 243 242 242 242 238 235 237 232 221 216 216 214 207 193 209 224 241 215
242 242 242 244 245 245 244 243 242 241 239 238 239 240 240 239 238 238 238 240 241 243 245 245 244 244 245 245 245 242 241 242 238 234 232 234 231 226 232 263 275 266 261
244 244 243 244 244 246 247 246 243 242 241 240 241 242 242 241 242 240 240 241 243 246 247 248 248 246 246 246 247 247 246 245 244 245 246 243 242 239 245 262 273 268 259
244 245 245 245 245 247 247 247 246 244 243 243 242 242 244 244 243 243 242 242 243 246 247 248 250 248 247 247 247 248 247 245 246 248 250 248 248 248 252 261 267 268 269
245 245 245 246 246 248 247 247 247 246 245 245 245 245 245 245 245 245 244 244 245 245 245 247 249 248 247 246 246 246 246 246 247 248 248 248 249 250 253 259 264 265 266
246 246 245 246 247 248 248 248 247 247 247 247 247 246 246 247 246 246 245 245 246 247 247 248 248 249 249 248 246 247 247 248 249 251 250 250 251 251 254 258 262 262 263
248 247 248 248 248 248 248 249 248 248 248 248 248 247 247 247 247 246 247 246 246 247 248 249 249 248 249 248 247 247 248 248 251 252 253 252 253 253 257 259 260 260 260
250 250 249 249 249 249 249 249 248 248 248 248 248 248 248 248 248 247 247 247 247 247 248 249 249 248 249 249 248 248 248 249 250 252 253 253 254 255 256 258 260 260 261
253 252 252 250 249 250 250 249 248 248 248 248 248 248 248 248 248 248 247 247 247 248 248 249 249 248 248 248 248 249 250 250 250 251 253 253 253 255 255 257 260 260 261
253 253 253 252 250 249 249 249 249 248 248 248 248 248 248 248 249 249 248 247 248 248 248 249 249 249 248 248 249 249 251 250 251 251 253 253 253 254 255 256 259 261 261
254 252 252 252 251 250 250 249 249 249 249 249 249 249 250 249 249 249 250 249 248 249 249 248 249 249 248 248 248 249 251 251 251 251 252 253 253 254 255 256 258 260 261
254 253 252 252 251 251 250 250 250 249 249 249 249 249 250 250 249 249 250 250 248 248 248 249 249 249 249 248 248 248 250 251 251 251 252 252 252 253 254 256 258 261 261
254 254 253 252 251 251 250 250 250 249 249 250 250 249 250 251 251 250 250 251 250 248 248 248 248 249 249 249 249 249 249 250 251 251 252 252 252 252 253 255 258 260 261
255 255 255 253 252 250 250 249 249 249 249 249 250 250 250 251 252 252 251 251 251 250 248 249 248 249 249 249 249 249 250 251 251 252 252 252 252 252 253 255 257 260 261
256 255 255 254 253 252 250 249 249 249 249 249 250 251 250 251 252 251 250 250 251 250 249 250 249 248 249 250 249 249 249 250 251 252 252 252 252 253 254 254 255 258 261
256 255 255 255 254 253 252 250 250 250 251 251 251 251 251 251 251 251 251 250 250 250 250 251 251 249 249 249 249 249 248 249 251 252 252 251 252 253 254 254 255 257 260
257 256 256 256 255 255 254 252 252 251 251 251 251 251 252 252 251 251 250 249 250 250 251 251 250 250 250 249 249 248 248 248 250 252 252 251 252 253 253 254 255 258 260
258 258 257 258 257 257 255 253 252 252 251 251 251 251 251 252 252 252 251 250 250 251 251 251 250 250 250 249 249 248 249 249 250 252 253 253 253 254 254 255 256 258 260
258 258 258 258 258 258 257 255 254 252 251 251 252 251 251 251 251 252 252 250 250 251 252 250 250 250 250 250 249 249 248 249 250 251 252 253 253 253 254 255 257 258 259
259 259 259 259 259 259 259 257 255 253 252 252 252 251 251 251 251 251 251 250 250 250 250 250 250 250 250 250 250 249 249 249 250 250 251 252 252 253 254 255 257 258 259
261 261 260 260 260 260 259 258 257 255 254 253 252 252 252 251 251 250 250 250 250 249 249 249 249 249 250 250 250 250 250 249 249 249 249 250 252 253 254 255 256 257 258
264 263 262 261 260 259 258 258 257 257 255 254 253 253 252 251 250 250 250 250 249 248 247 248 248 248 249 250 250 250 250 249 249 249 249 249 250 251 252 254 255 257 258
266 265 263 262 261 259 259 258 257 257 256 255 254 253 252 251 249 249 250 250 249 247 247 247 248 248 249 250 250 250 249 249 249 249 249 248 249 249 250 252 254 255 257
Height
5836 5836 5837 5838 5839 5840 5841 5842 5843 5844 5845 5846 5847 5848 5849 5851 5852 5853 5854 5855 5856 5857 5858 5858 5859 5860 5861 5861 5862 5862 5862 5863 5863 5864 5864 5864 5864 5864 5864 5865 5865 5865 5865
5833 5834 5835 5836 5837 5838 5839 5840 5842 5843 5844 5845 5846 5847 5848 5849 5851 5852 5853 5854 5855 5856 5857 5858 5858 5859 5860 5860 5861 5862 5862 5863 5863 5863 5864 5864 5864 5864 5864 5865 5865 5865 5865
5830 5831 5832 5833 5835 5836 5837 5838 5840 5841 5842 5843 5844 5845 5847 5848 5849 5850 5851 5852 5854 5855 5856 5857 5857 5858 5859 5860 5860 5861 5861 5862 5863 5863 5863 5863 5864 5864 5864 5864 5864 5864 5865
5827 5828 5829 5830 5831 5833 5834 5836 5837 5838 5839 5841 5842 5843 5845 5846 5847 5849 5850 5851 5852 5853 5854 5855 5856 5857 5858 5858 5859 5860 5860 5861 5862 5862 5862 5863 5863 5863 5864 5864 5864 5864 5864
5823 5825 5826 5827 5828 5830 5831 5833 5834 5835 5836 5838 5839 5841 5842 5843 5845 5846 5848 5849 5850 5851 5852 5853 5854 5855 5856 5857 5858 5858 5859 5860 5860 5861 5862 5862 5862 5863 5863 5863 5863 5864 5864
5819 5821 5822 5823 5825 5826 5827 5829 5830 5832 5833 5834 5836 5837 5839 5840 5842 5843 5845 5846 5848 5849 5850 5851 5852 5853 5854 5855 5856 5857 5858 5858 5859 5860 5860 5861 5861 5862 5862 5862 5863 5863 5863
5815 5816 5818 5819 5821 5822 5823 5825 5826 5828 5829 5831 5832 5834 5835 5837 5838 5840 5842 5843 5845 5846 5847 5848 5849 5851 5852 5853 5854 5855 5856 5856 5857 5858 5859 5859 5860 5860 5861 5861 5862 5862 5862
5810 5811 5813 5814 5816 5817 5819 5820 5822 5823 5825 5826 5828 5830 5831 5833 5835 5836 5838 5840 5841 5843 5844 5845 5847 5848 5849 5850 5851 5852 5853 5854 5855 5856 5857 5858 5858 5859 5859 5860 5860 5861 5861
5804 5806 5807 5809 5811 5812 5814 5816 5817 5819 5820 5822 5823 5825 5827 5829 5830 5832 5834 5836 5838 5839 5840 5842 5843 5845 5846 5847 5848 5850 5851 5852 5853 5854 5855 5855 5856 5857 5857 5858 5858 5859 5859
5798 5800 5801 5803 5805 5806 5808 5810 5811 5813 5815 5816 5818 5820 5822 5824 5825 5827 5829 5831 5833 5835 5836 5838 5839 5841 5842 5844 5845 5846 5848 5849 5850 5851 5852 5853 5854 5854 5855 5856 5856 5857 5857
5791 5793 5795 5796 5798 5799 5801 5803 5805 5807 5808 5810 5812 5814 5816 5818 5820 5822 5824 5826 5828 5830 5832 5833 5835 5836 5838 5840 5841 5843 5844 5845 5847 5848 5849 5850 5851 5852 5852 5853 5854 5854 5855
5784 5786 5787 5789 5791 5792 5794 5796 5798 5800 5802 5804 5806 5808 5810 5812 5814 5816 5818 5821 5823 5825 5826 5828 5830 5831 5833 5835 5837 5838 5840 5841 5843 5844 5845 5846 5847 5848 5849 5850 5851 5851 5852
5776 5777 5779 5781 5783 5785 5786 5788 5790 5792 5795 5797 5799 5801 5803 5805 5808 5810 5812 5814 5816 5819 5820 5822 5824 5826 5828 5830 5832 5833 5835 5837 5838 5839 5841 5842 5843 5844 5845 5846 5847 5848 5848
5767 5768 5770 5772 5774 5776 5778 5780 5782 5785 5787 5789 5791 5793 5795 5798 5800 5802 5805 5807 5809 5812 5814 5816 5818 5820 5822 5824 5826 5828 5830 5831 5833 5834 5836 5837 5838 5840 5841 5842 5843 5844 5844
5757 5759 5761 5763 5765 5767 5769 5771 5774 5776 5778 5781 5783 5785 5787 5789 5792 5794 5797 5799 5802 5804 5806 5809 5811 5813 5815 5817 5820 5822 5824 5825 5827 5829 5830 5832 5833 5834 5836 5837 5838 5839 5840
5748 5749 5751 5753 5755 5757 5759 5762 5764 5767 5769 5772 5774 5776 5779 5781 5783 5785 5788 5791 5793 5796 5798 5801 5803 5806 5808 5810 5813 5815 5817 5819 5821 5823 5824 5826 5827 5829 5830 5832 5833 5834 5835
5738 5739 5741 5743 5745 5747 5749 5752 5754 5757 5759 5762 5764 5767 5769 5771 5774 5776 5778 5781 5784 5787 5790 5792 5795 5798 5800 5803 5805 5807 5810 5812 5814 5816 5818 5819 5821 5823 5824 5826 5827 5828 5829
5727 5729 5730 5732 5734 5736 5738 5741 5743 5746 5749 5751 5754 5756 5759 5761 5764 5766 5768 5771 5774 5777 5780 5783 5786 5789 5791 5794 5797 5799 5802 5804 5806 5808 5810 5812 5814 5816 5817 5819 5820 5822 5823
5716 5718 5719 5721 5723 5725 5727 5729 5732 5734 5737 5739 5742 5745 5747 5749 5752 5755 5757 5760 5763 5766 5769 5772 5775 5779 5782 5785 5787 5790 5793 5795 5797 5800 5802 5804 5806 5808 5810 5812 5813 5815 5816
5705 5706 5708 5709 5711 5712 5714 5717 5719 5722 5724 5726 5729 5731 5734 5737 5739 5742 5745 5748 5751 5755 5758 5761 5764 5767 5771 5774 5777 5780 5783 5786 5788 5791 5793 5796 5798 5800 5802 5804 5806 5807 5809
5693 5694 5696 5697 5698 5699 5701 5703 5706 5708 5710 5713 5715 5718 5721 5723 5726 5729 5732 5735 5739 5742 5746 5749 5752 5756 5759 5762 5766 5770 5773 5776 5779 5781 5784 5786 5789 5791 5794 5796 5797 5799 5801
5680 5682 5683 5684 5685 5686 5687 5689 5692 5694 5696 5699 5701 5704 5707 5710 5713 5715 5718 5722 5725 5729 5732 5736 5740 5743 5747 5750 5754 5758 5762 5766 5768 5771 5774 5776 5779 5782 5784 5786 5788 5790 5792
5668 5669 5670 5671 5672 5673 5674 5675 5677 5680 5682 5684 5687 5690 5693 5696 5698 5701 5704 5708 5711 5715 5719 5722 5726 5730 5734 5737 5741 5745 5749 5753 5757 5761 5763 5766 5769 5772 5774 5777 5779 5781 5783
5655 5656 5657 5657 5658 5659 5660 5661 5663 5665 5668 5670 5673 5675 5678 5681 5684 5687 5690 5693 5697 5701 5705 5709 5712 5716 5720 5724 5727 5731 5736 5740 5744 5748 5752 5755 5757 5760 5763 5766 5768 5770 5772
5643 5643 5643 5644 5644 5645 5646 5647 5649 5651 5653 5655 5658 5661 5663 5666 5669 5672 5676 5679 5683 5687 5690 5694 5698 5702 5706 5710 5714 5717 5721 5726 5729 5734 5739 5743 5746 5749 5752 5754 5757 5759 5761
5630 5630 5630 5630 5631 5632 5633 5634 5635 5637 5638 5641 5643 5646 5649 5651 5655 5658 5661 5665 5669 5673 5676 5680 5684 5688 5692 5696 5700 5703 5707 5712 5716 5720 5725 5729 5733 5736 5739 5742 5745 5747 5750